Location: Mohawk View
(42.7837°N, 73.7885°W)
Time: 13:02:26
(UTC+00:00)

Cosmos 2322 Rocket - Pass Details

Date: 17 June 2021
Orbit: 833 x 850 km, 71.0° (Epoch: 26 July)

Event Time Altitude Azimuth Distance (km) Brightness Sun altitude
Rises 02:47:58 0° 228° (SW) 3,400 5.2 -17.5°
Reaches altitude 10° 02:50:36 10° 237° (WSW) 2,470 4.6 -17.8°
Maximum altitude 02:55:48 36° 303° (WNW) 1,323 3.7 -18.3°
Drops below altitude 10° 03:01:02 10° 10° (N) 2,486 5.4 -18.7°
Sets 03:03:43 0° 19° (NNE) 3,425 6.0 -18.9°
